SEBI

Registration No.

INH000000305

Ip Address Lookup

So far visitors:

customizable counter

TRIAL

TRIAL

SEND SMS FOR TRIAL

EQUITY - COMMODITY OR BOTH

TO

 09920033678

AND GET TRIAL

 


Information: COPPER (MCX): LOT SIZE CHANGED TO 2500 from 1000 (from JUL CONTRACT)

SEBI Registration No.: INH000000305 *****

* Commodity: 9500/month * Equity: 6000/month


* Gold Package: 7000 * Gold-Silver Package: 8100
*Crude-NG-Copper-Nickel Package: 6000


To See Past Performance, Click Here

For TRIAL / Registration,

click here

Past Performance >> Commodity
 
Search
 
Entry Start Date Entry End Date
Exit Start Date Exit End Date
Scrip Name Contract
Package
 

Packages: Precious Metals - Energy and Base Metals - Profit is calculated on basis of 1 lot per call

Package: Equity calls: Profit is calculated as follows:

1. If the scrip is in F & O then 1 lot is counted otherwise

2. Trade of Rs.1,50,000/- per call is counted.

 
Page: ( 1 2 3 4 5 6 7 8 9 10 11 12 13 14 15 16 17 18 19 20 21 22 23 24 25 26 27 28 29 30 31 32 33 34 35 36 37 38 39 40 41 42 43 44 45 46 47 48 49 50 51 52 53 54 55 56 57 58 59 60 61 62 63 64 65 66 67 68 69 70 71 72 73 74 75 76 77 78 79 80 81 82 83 ) [Current Page: 69]
Displaying 5101 to 5175   Calls
Entry Date Type Scrip Entry Price (Rs) T1
(Rs)
T2
(Rs)
T3
(Rs)
Stop Loss
(Rs)
Exit Date Exit Rate
(Rs)
Profit
(Rs)
 
03-04-14 Buy Above RELIANCE 962 970 975 980 955 03-04-14 955 -1750.00 More
02-04-14 Buy Above TATA STEEL 403.50 407 411 415 399 03-04-14 414 10500.00 More
01-04-14 Buy Above ADANI ENT 370 375 380 385 362 01-04-14 362 -16000.00 More
01-04-14 Buy Above HDFC 888 900 910 920 880 03-04-14 910 11000.00 More
31-03-14 Buy Above Ambuja Cement 201 205 207 210 196.50 07-04-14 210 18000.00 More
31-03-14 Buy Above HINDALCO 132 134 136 140 129.50 31-03-14 140 16000.00 More
26-03-14 Buy Above PFC 188 192 196 200 183 26-03-14 183 -10000.00 More
26-03-14 Buy Above HDFC 875 885 895 905 865 26-03-14 865 -5000.00 More
25-03-14 Buy Above PNB MARCH 120 CALL 586 590 595 600 582 26-03-14 600 7000.00 More
25-03-14 Buy Above PNB 666 675 685 695 652 27-03-14 695 14500.00 More
24-03-14 Buy Above ACC 1265 1275 1285 1300 1250 24-03-14 1298 8250.00 More
21-03-14 Buy Above PNB MARCH 120 CALL 577 582 585 --- 572 21-03-14 583 3000.00 More
21-03-14 Buy Above PNB 638 645 655 --- 630 24-03-14 655 8500.00 More
20-03-14 Sell Below Tata Power 79 77 75 --- 80.10 24-03-14 80.10 -4554.00 More
20-03-14 Sell Below ARVIND 151 149 147 145 152.50 21-03-14 148.50 10000.00 More
19-03-14 Buy Above SBI 1710 1730 1750 1770 1680 19-03-14 1722 1500.00 More
19-03-14 Buy Above Crompton Greaves 156 158 160 162 153 19-03-14 157.80 7200.00 More
18-03-14 Buy Above ITC 350 352 355 360 344 19-03-14 360 10000.00 More
18-03-14 Buy M&M 1035 1045 1055 1065 1025 18-03-14 1059 6000.00 More
13-03-14 Buy Above IDFC 114.50 117 119 --- 112 13-03-14 116.40 7600.00 More
12-03-14 Buy Above DLF 180 185 190 --- 176 13-03-14 176 -8000.00 More
11-03-14 Buy Above CENTURY 347 352 355 360 342 11-03-14 342 -5000.00 More
10-03-14 Buy Above ONGC 319 324 327 330 314 10-03-14 323 4000.00 More
10-03-14 Buy Above SBI 1675 1690 1700 1720 1640 11-03-14 1720 5625.00 More
05-03-14 Buy Above 1125 1135 1145 1155 1115 05-03-14 1134 4500.00 More
04-03-14 Buy Above HPCL 272 276 280 285 267 05-03-14 279 14000.00 More
28-02-14 Buy Above CESC 475 480 485 495 465 03-03-14 495 20000.00 More
25-02-14 Buy Above AXIS BANK 1245 1260 1270 1280 1230 25-02-14 1230 -3750.00 More
24-02-14 Buy Above ICICI BANK 1032 1042 1052 --- 1023 25-02-14 1049 4250.00 More
21-02-14 Buy Above Crompton Greaves 123 126 130 --- 121 25-02-14 127.75 19000.00 More
20-02-14 Sell Below Allahabad Bank 74 73 72 70 75 20-02-14 72.90 4400.00 More
20-02-14 Sell Below IDEA 131 129 127 125 133 24-02-14 126.60 8800.00 More
19-02-14 Buy Above MARUTI 1720 1735 1745 1760 1700 19-02-14 1700 -5000.00 More
19-02-14 Buy Above 1025 1035 1045 --- 1010 21-02-14 1045 10000.00 More
18-02-14 Buy Above AXIS BANK 1140 1150 1160 1170 1128 18-02-14 1169 7250.00 More
17-02-14 Buy Above TATA MOTORS 390 395 400 405 381 24-02-14 401 11000.00 More
14-02-14 Sell Below HDFC 762 755 745 735 770 14-02-14 770 -4000.00 More
14-02-14 Sell Below BHEL 150 147 145 140 153 14-02-14 145 10000.00 More
12-02-14 Buy Above HCL TECH 1480 1500 1510 1520 1455 17-02-14 1520 10000.00 More
11-02-14 Buy Above PETRONET 120 122 124 126 118 11-02-14 118 -4000.00 More
11-02-14 Buy Above TITAN 235 240 245 250 231 11-02-14 231 -4000.00 More
10-02-14 Buy Above TATA STEEL 387 392 396 400 383 10-02-14 393 6000.00 More
10-02-14 Buy Above ACC 1045 1055 1065 1080 1035 10-02-14 1035 -2500.00 More
07-02-14 Buy Above Cairn 334 340 345 350 329 11-02-14 337.50 3500.00 More
07-02-14 Buy Above TITAN 228 232 236 --- 225 07-02-14 225 -3000.00 More
06-02-14 Buy Above TATA STEEL 361 366 370 375 355 07-02-14 375 14000.00 More
06-02-14 Buy Above Crompton Greaves 120 124 126 128 116 13-02-14 127 28000.00 More
05-02-14 Buy Above AURO PHARMA 485 490 495 500 475 06-02-14 500 30000.00 More
04-02-14 Sell Below HINDALCO 103 100 98 96 107 07-02-14 107 -8000.00 More
04-02-14 Sell YES BANK 298 294 290 285 303 04-02-14 294 4000.00 More
03-02-14 Sell Below HDFC 804 795 790 785 813 04-02-14 785 9500.00 More
31-01-14 Buy Above BHEL 163 166 168 175 157 03-02-14 164.95 3900.00 More
29-01-14 Buy Above IRB Infra 72 74 76 78 70 29-01-14 73.25 5000.00 More
29-01-14 Buy Above ARVIND 140 142 145 --- 138 29-01-14 141.70 6800.00 More
28-01-14 Sell Below SIEMENS 535 530 525 --- 543 28-01-14 525 5000.00 More
28-01-14 Sell Below NTPC 129 127 125 --- 131 30-01-14 126.30 5400.00 More
24-01-14 Sell Below ACC 1015 1005 995 985 1026 27-01-14 985 7500.00 More
22-01-14 Buy Above ICICI BANK 1080 1090 1100 1110 1065 22-01-14 1092 3000.00 More
21-01-14 Buy Above VOLTAS 110 112 114 --- 108 21-01-14 108 -8000.00 More
20-01-14 Sell Below AXIS BANK 1145 1135 1120 --- 1155 20-01-14 1135 2500.00 More
20-01-14 Sell Below JSWSteel 995 985 975 --- 1005 20-01-14 1005 -5000.00 More
17-01-14 Sell Below TATA MOTORS 368 364 360 --- 372 20-01-14 372 -4000.00 More
16-01-14 Buy Above BOI 241 245 248 252 235 16-01-14 235 -12000.00 More
16-01-14 Buy Above 213 216 218 220 210 16-01-14 217.50 9000.00 More
15-01-14 Buy Above CESC 464 468 472 475 459 15-01-14 459 -5000.00 More
13-01-14 Buy Above HCL TECH 1310 1325 1340 1360 1295 13-01-14 1349 9750.00 More
13-01-14 Buy Above DR REDDY 2635 2650 2670 2690 2615 15-01-14 2668 4125.00 More
10-01-14 Sell Below ACC 1050 1040 1030 1020 1065 13-01-14 1031 4750.00 More
10-01-14 Sell Below HINDALCO 112 110 108 106 113.50 13-01-14 109 6000.00 More
09-01-14 Sell Below 995 985 975 965 1006 10-01-14 965 15000.00 More
09-01-14 Sell Below VOLTAS 116 114 112 --- 118 10-01-14 112 16000.00 More
08-01-14 Buy Above MARUTI 1855 1865 1875 1885 1840 08-01-14 1840 -3750.00 More
08-01-14 Sell Below ADANI ENT 242 237 232 --- 246 08-01-14 238 8000.00 More
07-01-14 Buy Above TCS 2250 2270 2280 2290 2230 07-01-14 2230 -2500.00 More
07-01-14 Sell Below ICICI BANK 1043 1033 1023 --- 1053 07-01-14 1031 3000.00 More
Page wise profit 356796.00 Rs
Profit 20764417.75 Rs
TRIAL

TRIAL

SEND SMS FOR TRIAL

EQUITY - COMMODITY OR BOTH

TO

 09920033678

AND GET TRIAL